Minneapolis Flying Cloud, MN

5:30 AM CDT on October 18, 2017 (GMT -0500)
Flying Cloud

Weather History for KFCM - November, 2011

Change the Weather History Date:

Tuesday, November 29, 2011

  Actual Average Record
Temperature  
Mean Temperature 32 °F -  
Max Temperature 39 °F 36 °F 69 °F (1996)
Min Temperature 23 °F 22 °F 8 °F (2007)
Degree Days  
Heating Degree Days 33    
Moisture  
Dew Point 14 °F    
Average Humidity 51    
Maximum Humidity 72    
Minimum Humidity 29    
Precipitation  
Precipitation 0.00 in - - ()
Sea Level Pressure  
Sea Level Pressure 30.27 in    
Wind  
Wind Speed 7 mph (NNW)    
Max Wind Speed 10 mph    
Max Gust Speed -    
Visibility 10 miles    
Events      
Averages and records for this station are not official NWS values.
T = Trace of Precipitation, MM = Missing Value Source: NWS Daily Summary

Daily Weather History Graph

Daily Weather History Graph

Search for Another Location

Airport or City:

Trip Planner

Search our weather history database for the weather conditions in past years. The results will help you decide how hot, cold, wet, or windy it might be!

Date:

Astronomy

Nov. 29, 2011 Rise Set
Actual Time 7:28 AM CST 4:35 PM CST
Civil Twilight 6:55 AM CST 5:08 PM CST
Nautical Twilight 6:19 AM CST 5:44 PM CST
Astronomical Twilight 5:44 AM CST 6:19 PM CST
Moon 11:11 AM CST (11/29) 9:34 PM CST (11/29)
Length of Visible Light 10h 12m
Length of Day
9h 06m
Waxing Crescent, 24% of the Moon is Illuminated
Nov 29
Waxing Crescent
Dec 2
First Quarter
Dec 10
Full
Dec 17
Last Quarter
Dec 24
New

Hourly Weather History & Observations

Time (CST) Temp. Windchill Dew Point Humidity Pressure Visibility Wind Dir Wind Speed Gust Speed Precip Events Conditions
1:53 AM 33.1 °F 25.5 °F 25.0 °F 72% 30.28 in 10.0 mi North 9.2 mph - N/A   Clear
2:53 AM 32.0 °F 24.2 °F 21.9 °F 66% 30.30 in 10.0 mi North 9.2 mph - N/A   Clear
3:53 AM 30.0 °F 22.4 °F 21.9 °F 72% 30.30 in 10.0 mi North 8.1 mph - N/A   Clear
4:53 AM 28.9 °F 21.1 °F 19.0 °F 67% 30.31 in 10.0 mi North 8.1 mph - N/A   Clear
6:53 AM 26.1 °F 19.4 °F 14.0 °F 60% 30.33 in 10.0 mi NNE 5.8 mph - N/A   Clear
7:53 AM 27.0 °F 18.0 °F 12.9 °F 56% 30.35 in 10.0 mi North 9.2 mph - N/A   Clear
8:53 AM 28.9 °F 19.8 °F 14.0 °F 54% 30.37 in 10.0 mi NE 10.4 mph - N/A   Clear
9:53 AM 32.0 °F 26.4 °F 15.1 °F 50% 30.38 in 10.0 mi Variable 5.8 mph - N/A   Clear
10:53 AM 34.0 °F 26.6 °F 12.9 °F 42% 30.37 in 10.0 mi North 9.2 mph - N/A   Clear
11:53 AM 36.0 °F 31.1 °F 10.9 °F 36% 30.34 in 10.0 mi North 5.8 mph - N/A   Clear
12:53 PM 37.9 °F 34.4 °F 10.9 °F 33% 30.29 in 10.0 mi West 4.6 mph - N/A   Clear
1:53 PM 37.9 °F 30.9 °F 12.0 °F 35% 30.25 in 10.0 mi NW 10.4 mph - N/A   Clear
2:53 PM 39.0 °F 32.3 °F 9.0 °F 29% 30.25 in 10.0 mi NW 10.4 mph - N/A   Clear
3:53 PM 37.0 °F 30.4 °F 10.0 °F 33% 30.25 in 10.0 mi NNW 9.2 mph - N/A   Clear
4:53 PM 35.1 °F 32.2 °F 10.0 °F 35% 30.24 in 10.0 mi NW 3.5 mph - N/A   Clear
5:53 PM 32.0 °F - 10.0 °F 40% 30.22 in 10.0 mi Calm Calm - N/A   Clear
6:53 PM 30.0 °F - 10.9 °F 45% 30.22 in 10.0 mi Calm Calm - N/A   Clear
7:53 PM 28.0 °F 24.2 °F 12.0 °F 51% 30.20 in 10.0 mi SW 3.5 mph - N/A   Clear
8:53 PM 27.0 °F 23.0 °F 12.9 °F 56% 30.19 in 10.0 mi WSW 3.5 mph - N/A   Clear
9:53 PM 25.0 °F - 12.9 °F 60% 30.17 in 10.0 mi Calm Calm - N/A   Clear
10:53 PM 26.1 °F 20.5 °F 14.0 °F 60% 30.15 in 10.0 mi WSW 4.6 mph - N/A   Clear
11:53 PM 23.0 °F 17.0 °F 14.0 °F 68% 30.12 in 10.0 mi SSW 4.6 mph - N/A   Clear